Regional Weather Roundup
Issued by NWS

Home | Current Version | Previous Version | Text Only | Print | Product List | Glossary On
Versions: 1 2 3 4 5 6 7 8 9 10 11 12 13 14 15 16 17 18 19 20 21 22 23 24 25 26 27 28 29 30 31 32 33 34 35 36 37 38 39 40 41 42 43 44 45 46 47 48 49 50
081
ASUS43 KBIS 240402
RWRND

NORTH DAKOTA REGIONAL WEATHER ROUNDUP
NATIONAL WEATHER SERVICE BISMARCK ND
1100 PM CDT SUN JUL 23 2017

NOTE: "FAIR" INDICATES FEW OR NO CLOUDS BELOW 12,000 FEET WITH NO
SIGNIFICANT WEATHER AND/OR OBSTRUCTIONS TO VISIBILITY.


NDZ001>003-009>011-017-240500-
NORTHWEST NORTH DAKOTA

CITY           SKY/WX    TMP DP  RH WIND       PRES   REMARKS
WILLISTON      CLEAR     81  55  40 SE14      29.85S
MINOT          CLEAR     73  58  59 SE12      29.92S
MINOT AFB      CLEAR     68  58  71 SE10      29.91S
$$

NDZ018>021-031>035-040>046-240500-
SOUTHWEST NORTH DAKOTA

CITY           SKY/WX    TMP DP  RH WIND       PRES   REMARKS
BISMARCK       CLEAR     66  59  78 SE6       29.96S
DICKINSON      CLEAR     73  56  54 SE14      29.93S
GARRISON         N/A     71  60  68 SE9       29.93S
HETTINGER ARPT CLEAR     74  53  48 SE15G22   29.97S
$$

NDZ004>008-012>016-024-026-027-054-240500-
NORTHEAST NORTH DAKOTA

CITY           SKY/WX    TMP DP  RH WIND       PRES   REMARKS
GRAND FORKS    CLEAR     64  63  96 S5        29.98R
GRND FRKS AFB  CLEAR     62  60  94 SW3       29.99R
DEVILS LAKE    CLEAR     69  63  81 SE12      29.99S
$$

NDZ022-023-025-028>030-036>039-047>053-240500-
SOUTHEAST NORTH DAKOTA

CITY           SKY/WX    TMP DP  RH WIND       PRES   REMARKS
FARGO          CLEAR     64  61  90 CALM      29.99S
JAMESTOWN      CLEAR     65  58  78 SE5       29.99S
$$





USA.gov is the U.S. government's official web portal to all federal, state and local government web resources and services.